Location: Katherine
(14.4670°S, 132.2670°E)
Time: 23:26:44
(UTC+09:30)

ISS - Pass Details

Date: 19 July 2018
Orbit: 402 x 408 km, 51.6° (Epoch: 23 July)

Event Time Altitude Azimuth Distance (km) Brightness Sun altitude
Rises 19:23:21 0° 242° (WSW) 2,317 0.7 -13.3°
Reaches altitude 10° 19:26:01 10° 266° (W) 1,452 0.1 -13.9°
Maximum altitude 19:28:02 15° 304° (NW) 1,165 -0.4 -14.4°
Drops below altitude 10° 19:30:03 10° 343° (NNW) 1,443 -0.6 -14.9°
Sets 19:32:42 0° 6° (N) 2,295 0.1 -15.5°
